Weather History for KINT - February, 2013

Change the Weather History Date:

Friday, February 8, 2013

  Actual Average Record
Temperature  
Mean Temperature 45 °F -  
Max Temperature 55 °F 49 °F 70 °F (2009)
Min Temperature 35 °F 32 °F 7 °F (1977)
Degree Days  
Heating Degree Days 20    
Moisture  
Dew Point 34 °F    
Average Humidity 72    
Maximum Humidity 96    
Minimum Humidity 36    
Precipitation  
Precipitation 0.10 in - - ()
Sea Level Pressure  
Sea Level Pressure 29.94 in    
Wind  
Wind Speed 10 mph (NNW)    
Max Wind Speed 16 mph    
Max Gust Speed 25 mph    
Visibility 9 miles    
Events Rain    
Averages and records for this station are not official NWS values.
T = Trace of Precipitation, MM = Missing Value Source: NWS Daily Summary

Daily Weather History Graph

Daily Weather History Graph

Search for Another Location

Airport or City:

Trip Planner

Search our weather history database for the weather conditions in past years. The results will help you decide how hot, cold, wet, or windy it might be!

Date:

Astronomy

Feb. 08, 2013 Rise Set
Actual Time 7:15 AM EST 5:55 PM EST
Civil Twilight 6:48 AM EST 6:21 PM EST
Nautical Twilight 6:18 AM EST 6:52 PM EST
Astronomical Twilight 5:48 AM EST 7:22 PM EST
Moon 5:41 AM EST (2/8) 4:27 PM EST (2/8)
Length of Visible Light 11h 33m
Length of Day
10h 39m
Waning Crescent, 3% of the Moon is Illuminated
Feb 8
Waning Crescent
Feb 10
New
Feb 17
First Quarter
Feb 25
Full
Mar 4
Last Quarter

Hourly Weather History & Observations

Time (EST) Temp. Windchill Dew Point Humidity Pressure Visibility Wind Dir Wind Speed Gust Speed Precip Events Conditions
12:54 AM 35.1 °F 26.9 °F 34.0 °F 96% 30.03 in 5.0 mi NNE 11.5 mph - 0.05 in Rain Light Rain
1:54 AM 35.1 °F 25.9 °F 33.1 °F 92% 29.99 in 5.0 mi NNE 13.8 mph 21.9 mph 0.03 in Rain Light Rain
2:54 AM 35.1 °F 25.9 °F 33.1 °F 92% 29.96 in 7.0 mi NNE 13.8 mph 20.7 mph 0.01 in Rain Light Rain
3:54 AM 35.1 °F 26.9 °F 33.1 °F 92% 29.93 in 7.0 mi NNE 11.5 mph 18.4 mph 0.01 in   Overcast
4:54 AM 35.1 °F 26.9 °F 34.0 °F 96% 29.94 in 8.0 mi North 11.5 mph - N/A   Overcast
5:54 AM 36.0 °F 29.6 °F 34.0 °F 93% 29.92 in 9.0 mi NNE 8.1 mph - N/A   Overcast
6:54 AM 35.6 °F 28.0 °F 33.8 °F 93% 29.92 in 10.0 mi North 10.4 mph - N/A   Overcast
7:54 AM 37.0 °F 31.0 °F 35.1 °F 93% 29.93 in 10.0 mi North 8.1 mph - 0.00 in   Overcast
8:54 AM 39.0 °F 32.8 °F 36.0 °F 89% 29.94 in 10.0 mi North 9.2 mph - N/A   Overcast
9:01 AM 39.2 °F 34.2 °F 35.6 °F 87% 29.93 in 10.0 mi NNW 6.9 mph - N/A   Overcast
9:54 AM 42.1 °F 38.4 °F 37.9 °F 85% 29.92 in 10.0 mi North 5.8 mph - N/A   Overcast
10:54 AM 45.0 °F 43.5 °F 39.0 °F 80% 29.92 in 10.0 mi NW 3.5 mph - N/A   Mostly Cloudy
11:21 AM 46.4 °F 45.2 °F 39.2 °F 76% 29.90 in 10.0 mi Variable 3.5 mph - N/A   Overcast
11:54 AM 46.0 °F 43.1 °F 39.9 °F 79% 29.90 in 10.0 mi WSW 5.8 mph - N/A   Overcast
12:54 PM 52.0 °F - 42.1 °F 69% 29.86 in 10.0 mi West 4.6 mph - N/A   Scattered Clouds
1:08 PM 53.6 °F - 42.8 °F 67% 29.86 in 10.0 mi West 8.1 mph - N/A   Mostly Cloudy
1:42 PM 53.6 °F - 42.8 °F 67% 29.85 in 10.0 mi West 8.1 mph - N/A   Overcast
1:54 PM 53.1 °F - 42.1 °F 66% 29.85 in 10.0 mi Variable 5.8 mph - N/A   Overcast
2:54 PM 55.9 °F - 41.0 °F 57% 29.84 in 10.0 mi WNW 12.7 mph 24.2 mph N/A   Scattered Clouds
3:54 PM 55.9 °F - 34.0 °F 44% 29.85 in 10.0 mi West 15.0 mph 20.7 mph N/A   Scattered Clouds
4:54 PM 55.9 °F - 28.9 °F 36% 29.87 in 10.0 mi NW 13.8 mph 24.2 mph N/A   Clear
5:54 PM 52.0 °F - 28.9 °F 41% 29.92 in 10.0 mi NNW 16.1 mph 23.0 mph N/A   Clear
6:54 PM 46.0 °F 39.3 °F 28.0 °F 50% 29.98 in 10.0 mi NNW 16.1 mph 23.0 mph N/A   Clear
7:54 PM 43.0 °F 36.4 °F 27.0 °F 53% 30.02 in 10.0 mi NNW 12.7 mph 19.6 mph N/A   Clear
8:54 PM 42.1 °F 34.9 °F 24.1 °F 49% 30.05 in 10.0 mi NW 13.8 mph 24.2 mph N/A   Clear
9:54 PM 42.1 °F 37.1 °F 26.1 °F 53% 30.07 in 10.0 mi NW 8.1 mph - N/A   Overcast
10:54 PM 39.9 °F 31.8 °F 24.1 °F 53% 30.08 in 10.0 mi WNW 15.0 mph 25.3 mph N/A   Clear
11:54 PM 39.0 °F 34.0 °F 24.1 °F 55% 30.09 in 10.0 mi NW 6.9 mph - N/A   Clear